Theta_e
314 314 314 313 313 313 313 313 312 312 312 311 311 311 311 310 310 310 312 316 318 319 318 320 322 323 322 322 321 320 321 321 322 321 320 319 319 320 319 319 318 317
315 314 314 314 313 313 312 312 312 312 311 311 311 311 310 310 309 309 311 314 317 318 318 318 319 321 321 321 320 320 321 321 322 321 319 319 319 319 319 319 319 317
315 314 314 314 313 313 312 312 312 311 311 311 310 310 310 310 309 309 311 312 315 317 318 318 318 319 320 320 320 321 321 320 321 321 320 319 319 319 318 318 318 317
315 314 314 314 313 313 312 312 312 311 311 311 310 310 310 309 309 309 310 311 313 314 316 317 318 318 319 320 319 319 319 319 320 320 319 319 318 318 318 317 317 317
315 315 314 313 313 313 312 312 312 311 311 310 310 309 309 309 309 308 309 310 312 314 315 314 315 315 316 317 317 317 317 319 319 319 319 318 318 317 317 316 316 316
315 315 314 313 313 312 312 312 312 311 311 310 310 310 309 308 308 308 308 309 312 314 315 314 314 315 316 316 316 317 317 318 318 318 318 318 317 317 316 315 315 314
315 314 314 313 313 313 313 312 312 311 311 310 310 310 309 309 308 308 308 309 311 313 315 315 315 316 316 316 316 317 317 317 317 317 318 318 317 317 316 315 314 313
315 315 314 314 313 313 313 312 312 312 311 311 310 310 310 309 308 308 307 309 311 313 315 316 316 315 315 316 317 317 317 316 317 317 317 318 317 316 316 315 314 313
316 315 314 314 314 313 313 312 312 312 311 311 311 310 310 310 309 308 307 308 310 312 313 313 313 314 315 316 316 316 316 316 316 317 317 318 318 317 317 315 314 312
316 316 315 315 314 313 313 312 312 311 311 311 311 310 310 310 309 308 307 307 308 310 310 310 311 313 315 315 315 315 316 316 316 317 317 317 317 317 316 315 314 312
316 316 315 315 314 313 313 312 312 311 311 311 311 311 311 310 310 309 307 307 307 308 308 308 310 312 313 314 315 315 315 315 316 316 316 316 316 316 315 315 314 313
316 315 315 315 314 314 313 312 312 311 311 311 311 311 311 310 310 310 308 308 307 307 307 307 308 310 311 313 313 314 314 315 316 316 316 315 314 315 315 314 313 312
315 315 315 315 315 314 313 313 312 312 311 311 310 310 310 310 310 310 309 309 308 308 307 307 308 308 308 310 311 313 314 315 315 315 316 315 314 314 314 314 313 312
314 314 315 314 314 314 314 313 312 312 311 311 310 310 310 310 310 310 309 309 309 308 307 307 307 307 307 309 311 313 313 314 314 314 314 315 314 314 314 314 313 312
313 314 314 314 314 314 314 313 312 312 311 311 311 310 310 310 309 309 309 309 309 309 308 307 307 307 307 308 310 312 312 313 313 313 313 314 313 313 313 313 313 313
312 312 312 313 313 313 313 313 312 312 312 311 311 311 310 309 309 308 308 308 308 308 308 308 307 307 306 306 308 310 311 312 312 312 312 312 312 313 313 313 313 313
311 311 311 311 311 312 312 312 312 312 312 312 311 311 310 309 308 308 308 308 308 308 308 308 307 307 306 305 306 307 309 310 311 311 311 312 311 311 311 311 312 312
311 311 311 311 311 311 311 311 311 311 311 311 311 310 310 309 309 309 308 308 308 307 307 307 307 307 306 305 305 305 307 308 309 309 310 311 311 311 310 310 310 311
311 311 311 311 311 311 311 311 311 311 311 310 310 310 309 309 309 308 308 308 307 307 307 306 307 306 306 305 304 304 304 306 307 308 308 309 310 310 310 310 310 310
311 311 311 311 311 311 311 311 311 311 310 310 310 309 309 309 308 308 308 307 307 306 306 306 306 306 306 305 304 304 304 304 305 306 307 307 308 308 309 310 310 309
310 310 310 310 310 310 310 310 310 310 310 310 309 309 309 309 309 308 308 307 306 306 306 306 306 305 305 304 304 304 303 303 304 305 306 306 307 307 307 308 308 308
309 309 309 309 309 310 310 310 310 310 310 309 309 309 309 309 309 308 308 307 306 306 305 306 306 304 304 304 303 303 303 303 303 304 305 305 306 306 305 306 306 306
308 308 309 309 309 309 309 309 309 309 309 309 309 309 309 309 308 308 308 307 306 306 305 306 306 304 303 303 302 302 302 302 302 303 303 304 305 305 305 304 305 305
307 308 308 308 309 309 309 309 309 309 309 309 309 309 309 309 308 308 308 307 307 306 306 305 306 304 303 302 302 301 301 301 301 301 302 302 303 303 304 304 304 304
305 306 307 307 308 308 308 308 308 308 308 308 308 308 308 308 308 308 308 308 307 307 306 305 305 305 303 302 301 301 300 300 300 300 300 301 301 301 302 302 302 302
304 304 304 304 305 306 306 306 307 307 307 307 307 307 307 307 307 307 307 307 307 306 306 305 305 304 303 302 301 300 299 299 299 299 299 300 299 300 300 300 301 301
Wind_Speed
17 18 19 21 23 24 25 26 27 28 28 27 27 27 28 29 30 34 38 41 41 41 40 40 43 45 44 42 42 44 45 46 47 47 46 44 42 42 45 46 45 43
18 18 19 21 22 23 24 25 27 27 27 27 26 26 26 27 28 31 35 40 41 41 41 41 42 43 43 43 45 46 46 47 47 45 44 44 42 43 45 46 47 45
20 20 21 21 22 22 23 24 26 27 27 27 27 26 26 26 27 29 32 37 40 42 42 42 43 44 45 46 46 46 46 47 48 47 46 45 44 44 44 44 46 47
20 21 22 22 22 22 23 24 26 26 27 28 28 27 27 26 26 29 32 34 36 39 41 42 44 46 46 45 46 47 47 48 50 48 48 46 44 44 44 43 45 47
21 22 23 23 23 23 24 25 26 26 26 27 27 28 28 27 26 28 31 33 34 36 37 38 40 42 43 44 47 49 48 50 50 47 47 45 44 44 45 44 44 45
21 22 23 23 23 24 25 26 26 26 26 26 27 28 29 28 27 28 30 32 34 36 38 38 37 40 42 43 45 48 50 53 50 46 45 44 46 48 46 44 45 45
22 23 23 23 23 24 26 26 26 27 27 26 27 28 28 29 28 27 28 31 34 36 39 40 39 40 43 44 46 50 52 52 49 48 47 45 47 49 47 45 45 44
22 23 22 22 23 24 25 26 26 27 27 27 28 28 28 28 28 28 28 31 34 36 37 40 40 41 44 46 48 50 52 51 50 50 50 48 48 50 50 48 46 44
23 22 22 22 22 23 24 25 25 26 26 27 28 28 28 29 28 28 29 30 33 35 37 39 41 42 43 45 47 48 49 50 50 50 50 52 54 54 53 50 46 44
25 23 22 21 21 22 23 23 23 24 25 27 27 28 28 29 29 29 29 30 32 34 37 38 40 41 43 45 46 47 48 48 50 52 54 56 58 56 53 50 48 46
26 24 23 23 22 22 22 22 22 23 24 26 27 27 28 29 30 30 30 31 33 34 36 37 39 41 44 45 45 45 47 48 50 54 57 58 59 56 52 49 49 48
26 26 25 24 24 23 22 22 23 23 24 25 26 27 28 28 29 30 30 32 34 35 37 39 40 42 45 47 46 44 46 48 51 55 56 57 57 56 52 48 47 46
25 25 25 25 25 24 23 23 23 24 24 24 25 27 28 29 29 30 30 31 32 35 38 40 41 42 43 46 47 46 46 48 51 53 54 55 56 55 55 51 47 46
23 24 25 25 25 25 24 23 23 23 23 24 25 26 28 28 29 30 30 31 32 33 35 38 40 41 41 43 46 46 47 48 48 49 49 52 55 56 56 55 53 50
20 21 22 23 24 25 25 24 24 23 23 24 25 26 27 28 29 31 32 32 32 33 34 36 38 41 41 42 45 46 47 47 48 48 48 51 54 55 56 57 56 54
19 20 21 22 23 24 24 24 24 24 24 25 26 26 27 28 29 32 33 34 34 35 35 36 38 40 41 42 45 46 47 48 50 52 52 54 55 56 58 59 59 57
20 21 22 22 24 25 25 25 25 26 27 27 27 27 28 29 30 32 33 34 35 36 37 38 39 39 39 41 44 46 48 49 51 52 54 55 56 57 59 60 60 59
22 23 23 23 24 26 26 27 27 28 29 29 29 29 29 29 31 32 33 34 36 37 38 40 40 40 39 40 42 45 48 50 51 52 53 55 56 57 57 58 60 60
23 24 24 24 25 26 27 28 30 31 32 32 32 31 30 31 31 32 33 34 35 37 38 39 40 40 40 40 40 42 45 49 51 52 53 55 57 57 57 58 58 57
25 25 26 26 26 27 28 29 30 31 32 33 35 35 34 34 34 33 34 34 35 36 38 39 39 39 39 40 40 40 40 44 49 52 53 55 58 58 58 58 57 55
26 27 28 28 28 29 30 30 30 32 32 33 34 35 36 37 36 36 36 35 35 36 37 39 39 38 38 39 40 39 38 40 45 50 53 54 57 58 57 57 59 59
26 27 28 29 30 31 32 32 33 34 34 34 36 36 37 37 38 38 38 37 36 35 37 40 40 38 37 38 39 39 39 39 42 47 52 55 58 58 57 56 58 60
25 27 28 29 30 32 33 33 34 35 35 36 38 39 39 39 40 40 39 39 38 37 38 40 40 38 36 36 37 38 39 41 42 44 48 53 57 58 58 56 57 59
25 27 28 28 29 30 31 32 32 33 33 34 36 38 40 40 41 42 42 41 41 40 39 40 41 39 36 35 35 36 37 40 42 44 47 50 52 55 57 57 57 58
27 28 29 29 30 30 31 32 32 31 31 31 33 36 38 40 41 42 43 43 43 42 41 41 42 40 37 35 35 35 36 38 40 43 47 49 50 52 55 56 57 58
29 30 31 31 32 33 33 34 34 34 34 33 33 34 35 38 39 41 43 43 42 42 42 42 42 41 38 36 34 34 35 36 39 42 46 48 49 50 53 55 56 57
Wind_Direction
291 286 284 282 281 281 281 281 280 280 279 277 273 269 264 259 251 241 235 235 238 241 241 244 247 248 247 246 248 250 252 254 256 254 246 240 241 241 241 242 242 241
301 295 290 286 285 284 284 284 284 283 282 281 279 275 269 263 254 243 236 233 236 241 242 243 247 247 247 247 249 251 251 252 252 249 243 241 242 243 244 246 246 244
307 302 298 294 291 288 287 286 284 284 285 284 283 280 275 267 257 247 239 235 235 238 242 245 247 247 247 247 248 251 254 254 251 244 239 240 243 245 245 247 247 246
312 305 300 298 296 292 289 286 284 285 286 286 286 285 282 274 262 249 242 238 238 238 240 244 247 248 247 246 249 252 252 254 255 248 241 240 243 245 245 246 247 248
314 309 304 300 298 296 291 288 287 287 287 287 288 287 285 280 267 253 243 238 238 240 243 246 248 249 247 247 250 252 252 253 254 248 243 244 246 248 247 247 248 249
313 311 308 303 299 297 294 292 291 289 287 288 288 286 286 284 272 257 245 238 235 238 244 248 251 251 251 251 252 253 255 254 250 244 241 246 252 250 247 247 249 250
311 310 309 307 302 298 297 297 295 293 291 290 289 287 286 287 278 262 248 239 235 236 241 245 249 251 253 255 256 256 257 255 249 242 240 248 254 250 247 249 251 252
307 308 310 309 306 301 299 299 299 299 297 294 292 291 289 288 284 271 256 245 238 237 241 243 246 249 251 254 257 259 259 254 249 244 244 250 253 251 250 252 251 253
304 307 310 310 308 305 302 301 301 301 299 297 295 295 292 290 288 278 264 252 242 239 241 243 245 248 249 253 257 260 260 256 250 247 248 252 252 249 250 251 250 253
300 302 305 307 307 306 304 303 301 299 297 297 296 295 294 292 290 284 270 258 248 243 243 244 246 247 249 254 257 258 259 258 256 253 252 253 252 249 249 249 249 252
297 300 303 306 306 305 304 303 300 297 295 295 295 294 294 293 291 288 278 265 256 252 249 247 246 246 250 255 258 257 257 258 259 260 258 256 254 251 250 251 251 252
300 305 306 306 306 306 305 302 300 298 295 294 295 294 293 292 290 289 285 275 266 261 258 254 250 248 249 253 257 258 259 258 259 262 263 261 257 253 252 254 255 256
305 306 305 304 305 305 304 303 302 302 299 298 297 295 293 292 290 290 289 285 278 270 265 261 257 252 250 251 253 256 259 260 259 260 262 261 258 254 252 253 256 257
307 305 304 303 304 303 303 304 303 302 301 299 297 294 294 294 292 291 290 288 286 281 275 268 260 255 252 250 251 254 258 261 262 261 261 260 259 256 252 252 255 256
310 308 306 305 304 304 304 305 304 302 301 298 296 295 294 294 293 291 289 287 287 287 283 276 265 258 254 251 251 255 258 262 264 264 263 263 262 259 257 255 256 257
314 311 310 309 308 307 306 307 305 304 301 298 297 296 294 294 292 290 289 288 288 287 286 283 276 267 260 254 252 254 257 260 263 264 265 265 263 260 259 257 257 257
322 320 320 318 316 314 311 310 308 305 303 301 299 298 297 296 294 291 290 289 288 287 285 284 282 279 272 264 257 254 256 259 262 263 265 266 264 262 261 259 258 258
322 321 322 322 320 318 315 314 312 310 308 305 302 301 299 296 294 292 291 290 288 287 286 284 284 284 281 275 267 260 257 259 263 264 265 266 266 265 265 263 261 259
317 316 317 317 316 316 316 315 316 314 312 310 308 305 302 298 296 294 292 291 289 288 287 286 286 285 284 281 277 270 262 258 260 264 265 265 266 266 267 268 265 262
313 311 312 312 312 312 311 312 312 312 311 311 309 306 304 301 300 297 294 292 291 290 289 287 286 286 285 283 281 278 272 264 261 264 266 266 266 267 268 268 265 260
314 313 312 311 310 309 308 308 308 307 307 307 305 303 302 300 299 297 295 293 292 291 290 288 286 286 285 284 282 281 278 272 266 265 266 267 268 268 268 268 263 259
318 316 316 315 313 311 310 309 308 307 307 307 305 302 301 300 299 298 296 294 293 291 288 287 287 287 286 285 284 282 280 276 272 269 267 266 268 269 269 269 266 262
322 320 320 320 318 316 314 312 310 309 309 308 306 304 303 303 301 300 298 296 294 291 289 288 288 288 287 285 284 283 280 277 275 273 271 268 268 269 270 271 270 266
328 325 324 323 322 321 318 315 313 311 309 308 306 305 305 305 303 302 300 298 296 294 292 290 290 289 287 285 284 282 280 278 276 275 274 272 271 271 271 271 272 269
332 330 329 327 325 324 322 319 317 313 310 309 307 306 305 304 303 302 301 300 299 297 295 293 291 291 288 285 284 282 279 278 276 275 274 274 274 273 272 271 271 270
331 330 329 329 327 326 325 324 323 319 314 310 307 305 303 302 301 300 300 300 300 298 297 295 294 292 289 286 284 283 281 278 276 274 274 275 275 275 274 273 271 270